Change the Weather History Date:

Friday, December 2, 2011

  Actual Average Record
Temperature  
Mean Temperature 48 °F -  
Max Temperature 51 °F 46 °F 57 °F (2007)
Min Temperature 44 °F 40 °F 30 °F (2010)
Degree Days  
Heating Degree Days 18    
Moisture  
Dew Point 40 °F    
Average Humidity 72    
Maximum Humidity 82    
Minimum Humidity 56    
Precipitation  
Precipitation 0.00 in - - ()
Sea Level Pressure  
Sea Level Pressure 30.01 in    
Wind  
Wind Speed 12 mph ()    
Max Wind Speed 25 mph    
Max Gust Speed 23 mph    
Visibility 6.6 miles    
Events Rain    
Averages and records for this station are not official NWS values.
T = Trace of Precipitation, MM = Missing Value Source: Averaged Metar Reports

Daily Weather History Graph

Daily Weather History Graph

Search for Another Location

Airport or City:

Trip Planner

Search our weather history database for the weather conditions in past years. The results will help you decide how hot, cold, wet, or windy it might be!

Date:

Astronomy

Dec. 02, 2011 Rise Set
Actual Time 7:42 AM GMT 4:12 PM GMT
Civil Twilight 7:06 AM GMT 4:49 PM GMT
Nautical Twilight 6:26 AM GMT 5:29 PM GMT
Astronomical Twilight 5:47 AM GMT 6:07 PM GMT
Moon 12:20 PM GMT (12/2) No Moon Set
Length of Visible Light 9h 43m
Length of Day
8h 29m
Waxing Crescent, 51% of the Moon is Illuminated
Dec 2
Waxing Crescent
Dec 10
Full
Dec 18
Last Quarter
Dec 24
New
Jan 1
First Quarter

Hourly Weather History & Observations

Time (GMT) Temp. Windchill Dew Point Humidity Pressure Visibility Wind Dir Wind Speed Gust Speed Precip Events Conditions
12:00 AM 47 °F - 43 °F 82% 29.79 in 12 mi NW 13.8 mph - - Rain Light Rain
3:00 AM 47 °F - 41 °F 73% 29.87 in 22 mi NNW 10.4 mph - -   Partly Cloudy
3:50 AM 46.4 °F 40.7 °F 39.2 °F 76% 29.89 in 6.2 mi NNW 12.7 mph - N/A   Partly Cloudy
4:20 AM 46.4 °F 40.7 °F 39.2 °F 76% 29.89 in 6.2 mi NNW 12.7 mph - N/A   Partly Cloudy
4:50 AM 46.4 °F 41.1 °F 39.2 °F 76% 29.89 in 6.2 mi NW 11.5 mph - N/A   Scattered Clouds
5:20 AM 46.4 °F 40.7 °F 39.2 °F 76% 29.92 in 6.2 mi NW 12.7 mph - N/A   Partly Cloudy
5:50 AM 46.4 °F 41.9 °F 39.2 °F 76% 29.92 in 6.2 mi NNW 9.2 mph - N/A   Partly Cloudy
6:00 AM 47 °F - 40 °F 70% 29.94 in 22 mi NNW 11.5 mph - -   Partly Cloudy
6:20 AM 46.4 °F 42.9 °F 41.0 °F 81% 29.92 in 6.2 mi NNW 6.9 mph - N/A   Partly Cloudy
6:50 AM 46.4 °F 42.4 °F 39.2 °F 76% 29.95 in 6.2 mi NNW 8.1 mph - N/A   Partly Cloudy
7:20 AM 46.4 °F 41.9 °F 39.2 °F 76% 29.98 in 6.2 mi NNW 9.2 mph - N/A   Partly Cloudy
7:50 AM 44.6 °F 40.7 °F 39.2 °F 81% 29.98 in 6.2 mi NNW 6.9 mph - N/A   Partly Cloudy
8:20 AM 46.4 °F 41.9 °F 41.0 °F 81% 30.01 in 6.2 mi NNW 9.2 mph - N/A   Scattered Clouds
8:50 AM 48.2 °F - 41.0 °F 76% 30.01 in 6.2 mi NW 9.2 mph - N/A   Scattered Clouds
9:00 AM 47 °F - 40 °F 69% 30.03 in 31 mi NW 9.2 mph - -   Partly Cloudy
9:20 AM 46.4 °F 42.4 °F 39.2 °F 76% 30.04 in 6.2 mi NW 8.1 mph - N/A   Partly Cloudy
9:50 AM 48.2 °F - 41.0 °F 76% 30.04 in 6.2 mi NW 10.4 mph - N/A   Partly Cloudy
10:20 AM 50.0 °F - 41.0 °F 71% 30.04 in 6.2 mi NW 12.7 mph - N/A   Partly Cloudy
10:50 AM 50.0 °F - 41.0 °F 71% 30.04 in 6.2 mi NW 10.4 mph - N/A   Partly Cloudy
11:20 AM 51.8 °F - 41.0 °F 67% 30.06 in 6.2 mi WNW 12.7 mph - N/A   Partly Cloudy
11:50 AM 46.4 °F 42.4 °F 41.0 °F 81% 30.06 in 6.2 mi NW 8.1 mph 23.0 mph N/A Rain Light Rain Showers
12:00 PM 47 °F - 39 °F 65% 30.09 in 12 mi WNW 15.0 mph - - Rain Light Rain Showers
12:20 PM 48.2 °F - 41.0 °F 76% 30.06 in 6.2 mi West 8.1 mph - N/A   Partly Cloudy
12:50 PM 50.0 °F - 42.8 °F 76% 30.06 in 6.2 mi NW 17.3 mph - N/A   Scattered Clouds
1:20 PM 50.0 °F - 41.0 °F 71% 30.06 in 6.2 mi WNW 11.5 mph - N/A   Scattered Clouds
1:50 PM 50.0 °F - 41.0 °F 71% 30.04 in 6.2 mi WNW 9.2 mph - N/A   Scattered Clouds
2:20 PM 50.0 °F - 41.0 °F 71% 30.04 in 6.2 mi West 16.1 mph - N/A   Scattered Clouds
2:50 PM 50.0 °F - 39.2 °F 66% 30.04 in 6.2 mi West 16.1 mph - N/A   Scattered Clouds
3:00 PM 49 °F - 39 °F 58% 30.07 in 34 mi West 18.4 mph - -   Partly Cloudy
3:20 PM 50.0 °F - 39.2 °F 66% 30.04 in 6.2 mi West 16.1 mph - N/A   Scattered Clouds
3:50 PM 50.0 °F - 37.4 °F 62% 30.04 in 6.2 mi West 16.1 mph - N/A   Scattered Clouds
4:20 PM 50.0 °F - 39.2 °F 66% 30.04 in 6.2 mi West 17.3 mph - N/A   Scattered Clouds
4:50 PM 50.0 °F - 37.4 °F 62% 30.04 in 6.2 mi West 17.3 mph - N/A   Scattered Clouds
5:20 PM 50.0 °F - 41.0 °F 71% 30.04 in 6.2 mi West 20.7 mph - N/A   Partly Cloudy
5:50 PM 50.0 °F - 39.2 °F 66% 30.04 in 6.2 mi West 17.3 mph - N/A   Scattered Clouds
6:00 PM 50 °F - 39 °F 56% 30.07 in 31 mi West 18.4 mph - -   Partly Cloudy
6:20 PM 50.0 °F - 41.0 °F 71% 30.04 in 6.2 mi WSW 18.4 mph - N/A   Scattered Clouds
6:50 PM 50.0 °F - 41.0 °F 71% 30.04 in 6.2 mi West 17.3 mph - N/A   Scattered Clouds
7:20 PM 50.0 °F - 41.0 °F 71% 30.04 in 6.2 mi West 19.6 mph - N/A   Scattered Clouds
7:50 PM 50.0 °F - 42.8 °F 76% 30.04 in 6.2 mi SW 24.2 mph - N/A   Scattered Clouds
8:20 PM 50.0 °F - 41.0 °F 71% 30.04 in 6.2 mi WSW 25.3 mph - N/A Rain Light Rain
8:50 PM 48.2 °F - 42.8 °F 82% 30.04 in 6.2 mi WSW 24.2 mph - N/A Rain Light Rain
9:00 PM 48 °F - 42 °F 74% 30.05 in 9 mi WSW 21.9 mph - - Rain Light Rain